Pagina principale
METAR-TAF:

METAR-TAF

Aeroporti :

Reims, Francia

latitudine: 49-12-31N, longitudine: 004-09-24E, altezza: 95 m

Osservazione

Il bollettino è stato emesso 24 minuti fa, alle 05:30 UTC
Vento 4 kt da ovest
Temperature 4°C
Umidità 87%
Pressione 1009 hPa
Visibilità: 6000 m

METAR: LFQA 180530Z AUTO 27004KT 6000 NSC 04/02 Q1009

Ora: 06:54 (05:54 UTC)


TAF: mancante

Osservazioni e previsioni meteorologiche di più di 4000 aeroporti (messaggi METAR e TAF).

Le stazioni disponibili sono rappresentate dai dischi gialli e rossi sulla carta.

Puntare il mouse per vedere il nome della stazione.

Clicca sopra per visualizzare le osservazioni e previsioni meteorologiche.

Per cambiare la mappa : fare clic sui pulsanti verdi con una croce nera per ingrandire, il pulsante verde con un trattino per diminuire, o sulla freccia verde per le mappe adiacenti.


METAR-TAF: